Location: Newark
(21.1200°N, 73.4000°E)
Time: 02:36:39
(UTC+00:00)

Vanguard 1 Rocket - Pass Details

Date: 29 January 2020
Orbit: 650 x 4226 km, 34.3° (Epoch: 26 February)

Event Time Altitude Azimuth Distance (km) Brightness Sun altitude
Rises 12:42:39 0° 283° (WNW) 7,244 13.1 1.8°
Reaches altitude 10° 12:48:06 10° 273° (W) 6,645 13.2 0.6°
Maximum altitude 13:06:46 30° 222° (SW) 5,829 12.3 -3.6°
Drops below altitude 10° 13:26:55 10° 169° (SSE) 6,981 12.0 -8.1°
Sets 13:33:10 0° 158° (SSE) 7,618 12.0 -9.5°
